Regional Weather Roundup
Issued by NWS Cleveland, OH

Home | Current Version | Previous Version | Graphics & Text | Print | Product List | Glossary On
Versions: 1 2 3 4 5 6 7 8 9 10 11 12 13 14 15 16 17 18 19 20 21 22 23 24 25 26 27 28 29 30 31 32 33 34 35 36 37 38 39 40 41 42 43 44 45 46 47 48 49 50
000
ASUS41 KCLE 061410
RWRCLE
OHIO REGIONAL WEATHER ROUNDUP
NATIONAL WEATHER SERVICE CLEVELAND, OH
900 AM EST SAT FEB 06 2016

NOTE: "FAIR" INDICATES FEW OR NO CLOUDS BELOW 12,000 FEET WITH NO
SIGNIFICANT WEATHER AND/OR OBSTRUCTIONS TO VISIBILITY.

OHZ001>008-015>018-024>027-034-035-043-044-061500-
   NORTHWEST OHIO

CITY           SKY/WX    TMP DP  RH WIND       PRES   REMARKS
DEFIANCE       SUNNY     26  23  88 SW3       30.34R FOG
FINDLAY        SUNNY     27  24  89 SW5       30.32R FOG     WCI  22
TOLEDO EXPRESS MOSUNNY   25  22  88 SW7       30.32R FOG     WCI  17
TOLEDO EXEC    SUNNY     26  22  84 SW6       30.33S FOG     WCI  19
LIMA           CLOUDY    25  24  96 W7        30.32R FOG     WCI  17
$$

OHZ009>014-019>023-028>033-038-089-061500-
   NORTHEAST OHIO

CITY           SKY/WX    TMP DP  RH WIND       PRES   REMARKS
CLE-HOPKINS    MOSUNNY   29  23  78 W5        30.34R WCI  24
CLE-LAKEFRONT  SUNNY     30  24  78 SW10      30.32R WCI  21
CUY CO. ARPT   PTSUNNY   30  25  80 W9        30.31S WCI  22
LORAIN-ELYRIA  SUNNY     28  23  81 W7        30.32S WCI  21
ASHTABULA      CLOUDY    30  23  75 SW7       30.30R WCI  23
AKRON-CANTON   MOSUNNY   28  22  78 W7        30.30R HAZE    WCI  21
WOOSTER        MOSUNNY   27  23  85 W9        30.31R FOG     WCI  18
MANSFIELD      CLOUDY    27  24  89 W7        30.30R WCI  19
YOUNGSTOWN     PTSUNNY   31  19  61 W8        30.28S WCI  23
$$

OHZ042-051>053-060>062-070>072-077>081-061500-
  SOUTHWEST OHIO

CITY           SKY/WX    TMP DP  RH WIND       PRES   REMARKS
CINC-COVINGTON MOSUNNY   27  25  92 CALM      30.34S FOG
CINC-LUNKEN    SUNNY     27  26  96 CALM      30.39R
HAMILTON       SUNNY     26  24  92 CALM      30.37R FOG
DAYTON         MOSUNNY   25  24  96 SW7       30.33S FOG     WCI  17
WRIGHT-PAT AFB SUNNY     24  22  89 CALM      30.34R
DAYTON GENERAL SUNNY     25  23  92 CALM      30.33R FOG
WILMINGTON     MOSUNNY   29  25  85 CALM      30.33R FOG
$$

OHZ036-037-039>041-045>050-054>059-063>069-073>076-082>088-061500-
  CENTRAL AND SOUTHEAST OHIO

CITY           SKY/WX    TMP DP  RH WIND       PRES   REMARKS
COLUMBUS       MOSUNNY   28  22  78 CALM      30.33S
OSU AIRPORT    SUNNY     26  23  88 W5        30.33R FOG     WCI  20
BOLTON FIELD   SUNNY     27  25  93 W3        30.34R FOG
RICKENBACK AFB SUNNY     27  24  87 CALM      30.34R
NEWARK         SUNNY     28  22  78 CALM      30.32S
MARION         SUNNY     27  21  78 W3        30.32S HAZE
LANCASTER      SUNNY     29  23  78 CALM      30.34R
ZANESVILLE     SUNNY     32  18  56 SW6       30.33R WCI  26
NEW PHILLY     SUNNY     31  20  63 CALM      30.33R
$$



USA.gov is the U.S. government's official web portal to all federal, state and local government web resources and services.